Location: Sungai Buloh
(3.1000°N, 113.0000°E)
Time: 22:39:46
(UTC+00:00)

Cosmos 1766 Rocket - Pass Details

Date: 12 January 2026
Orbit: 598 x 626 km, 82.5° (Epoch: 11 February)

Event Time Altitude Azimuth Distance (km) Brightness Sun altitude
Rises 21:12:41 0° 197° (SSW) 2,905 7.1 -20.6°
Reaches altitude 10° 21:15:01 10° 204° (SSW) 1,996 6.1 -20.1°
Enters shadow 21:19:11 41° 274° (W) 908 3.9 -19.1°
